User: anonymous   Login
Location: Slanting_Bridge
(35.6330°N, 80.9830°W)
Time: 09:27:05
(UTC-04:00)
Language:

Hamsat - Orbit

View from above orbital plane
View from above orbital plane
View from above satellite
View from above satellite

Ground track
Ground track

The orbit data is extracted from the following two-line orbital elements,

1 28650U 05017B   15144.94379154  .00001235  00000-0  14166-3 0  9993
2 28650 097.5739 138.4618 0025843 107.4611 252.9434 14.87347121543993
Epoch (UTC): 24 May 2015 22:39:03
Eccentricity: 0.0025843
inclination: 97.5739°
perigee height: 588 km
apogee height: 624 km
right ascension of ascending node: 138.4618°
argument of perigee: 107.4611°
revolutions per day: 14.87347121
mean anomaly at epoch: 252.9434°
orbit number at epoch: 54399

The dashed part of the orbit path shows where the satellite is in the earth's shadow,  

DLR